Terug naar catalogus

STARLINK-11621

ActiefCommunicatieVLEO
NORAD 63273·PAYLOAD·🇺🇸 United States

Gelanceerd Mar 15, 2025 vanaf Cape Canaveral Space Force Station

Loading…

Volgende Passages (komende 24 uur)

TLE

VersSource: CelesTrak SupGP

Epoch: Sep 15, 2026, 02:11 UTC

1 63273C 25053J   26258.09145833 -.00094312  00000+0 -73205-3 0  2580
2 63273  43.0011  50.1630 0001820 267.4367  37.0659 15.70899823    16

Volg STARLINK-11621 in realtime met AllMySat

Download on the App Store